STARLINK-5894, 55965

Orbit data source: Space-Track

STARLINK-5894, 55965 is a payload satellite owned by SpaceX/Seattle (US) in LEO that was launched on Fri, 17 Mar 2023 UTC via an FALCON 9 launch vehicle from the Air Force Western Test Range (AFWTR). Payload-class satellites include a variety of spacecraft equipped with specific instruments for various scientific and technological missions. These include communications satellites like Starlink; space stations such as the ISS; scientific satellites like the Hubble; Earth observation satellites from companies like Planet Labs, Umbra, and HawkEye 360; GPS; miniature CubeSats for education and research; and military/defense satellites.

Loading next visibility...
Identifier
55965, 2023-037BD
Orbit
LEO
Country
Flag of USUS
Related business
Manufacturer
SpaceX/Seattle
Mission
Operational Commercial Communications
Bus & Motor
STARLINK, Unknown motor
Mass
305 kg wet, ~290 kg dry
Launch date (UTC)
2023-03-17 (3 years ago)
Launch vehicle
FALCON 9
Launch site
Air Force Western Test Range (AFWTR)
Object type
Payload
Rocket body
Debris
Shape & HBR
Box + 1 Pan, 10.1 m
Radar Cross Section
11.087 m², Large (>1 m²)

Expand to show TLE details & history
Last TLE update: 2 days ago

TLE from 2 days ago
0 STARLINK-5894
1 55965U 23037BD  26170.94606884 -.00000173  00000-0 -66853-5 0  9992
2 55965  69.9995   6.4942 0002910 267.3434  92.7392 14.98328694179794
Epoch: 2026-06-19T22:42Z
TLE epoch observation values (Epoch: 2026-06-19T22:42:20.347Z)
Latitude
-0.00004°
Longitude
117.74165°
Altitude
574.581 km
Speed
7.574 km/s
True Right ascension
00h 25m 58s
True Declination
0° 00' 00"
Sunlit
Object was in daylight at epoch
Visualization orbit readout
Latitude
Unknown
Longitude
Unknown
Altitude
Unknown
Speed
Unknown
Apparent Right ascension
Unknown
Apparent Declination
Unknown
Sunlit
N/A
Visualization observer readout
Local Sidereal Time
21:38:44
Azimuth
Unknown
Elevation
Unknown
Doppler factor
Unknown
Orbital elements
Apogee altitude
572.03 km
Perigee altitude
567.986 km
Semi-major axis
6,948.145 km
Eccentricity
0.00029
Inclination
69.9995°
RAAN
6.4942°
Arg. of periapsis
267.3434°
True anomaly
92.77251°
Mean anomaly
92.7392°
Eccentric anomaly
92.75585°
Mean motion
3.74748 °/min
Orbital period
96.06 mins
BSTAR
-0.0000066853
Loading maneuver chart data...
Computing Atmospheric mass density...
Loading historical data...
Loading historical data...
Loading historical data...
Loading historical data...
Loading historical data...
Loading historical data...
Loading historical data...

Documentation

Showing up to 5 results
|